Regional Weather Roundup
Issued by NWS

Home | Current Version | Previous Version | Graphics & Text | Print | Product List | Glossary On
Versions: 1 2 3 4 5 6 7 8 9 10 11 12 13 14 15 16 17 18 19 20 21 22 23 24 25 26 27 28 29 30 31 32 33 34 35 36 37 38 39 40 41 42 43 44 45 46 47 48 49 50
736
ASUS44 KLIX 300107
RWRLA
LOUISIANA WEATHER ROUNDUP
NATIONAL WEATHER SERVICE NEW ORLEANS LA
800 PM CDT SUN MAR 29 2015

NOTE: "FAIR" INDICATES FEW OR NO CLOUDS BELOW 12,000 FEET WITH NO
      SIGNIFICANT WEATHER AND/OR OBSTRUCTIONS TO VISIBILITY.
      SKY/WX - SKY CONDITION AND SIGNIFICANT WEATHER.
      TMP - AIR TEMPERATURE.    DP   - DEWPOINT TEMPERATURE.
      RH  - RELATIVE HUMIDITY.  PRES - PRESSURE.
      HX  - HEAT INDEX.         WCI  - WIND CHILL INDEX.

*  THESE STATIONS ARE NOT NWS OR FAA STATIONS AND ARE NOT UNDER
   NWS QUALITY CONTROL.

LAZ040-048-061>063-065-066-069-300200-
SOUTHEAST LOUISIANA

CITY           SKY/WX    TMP DP  RH WIND       PRES   REMARKS
N.O. AUDUBON   NOT AVBL
N.O. INTL ARPT PTCLDY    69  61  75 S10       30.21R
N.O. LAKEFRONT CLEAR     71  60  68 S12       30.21R
SLIDELL        MOCLDY    68  62  81 S10       30.20R
BATON ROUGE    CLEAR     72  58  61 SW17G25   30.17S
BOOTHVILLE     PTCLDY    68  62  81 SE8       30.23S
BELLE CHASSE   CLEAR     67  61  81 S8        30.21R
BOGALUSA*        N/A     69  59  71 SE10      30.21S
GALLIANO*      MOCLDY    71  64  77 CALM      30.22R
NEW ROADS*     FAIR      71  58  63 S8        30.17R
GONZALES*      FAIR      71  59  66 S5        30.19R
HAMMOND*       CLEAR     68  61  77 CALM      30.20R
HOUMA*         CLEAR     67  62  86 S6        30.21R
PORT FOURCHON* NOT AVBL

$$

LAZ041-044-053-054-300200-
SOUTHWEST LOUISIANA

CITY           SKY/WX    TMP DP  RH WIND       PRES   REMARKS
LAKE CHARLES   CLEAR     69  62  78 SW7       30.16R
LAFAYETTE      PTCLDY    71  62  73 S7        30.18R
PATTERSON      CLEAR     68  59  73 S6        30.21R
SALT POINT       N/A     67  64  90 SE6       30.18S
NEW IBERIA     CLEAR     70  62  76 S8        30.19S
CHENAULT AIRPK NOT AVBL

$$

LAZ027-028-300200-
CENTRAL LOUISIANA

CITY           SKY/WX    TMP DP  RH WIND       PRES   REMARKS
FORT POLK      CLEAR     71  60  69 S13       30.11S
ALEXANDRIA INT CLEAR     72  58  61 S13       30.10R
ALEXANDRIA     CLEAR     71  57  61 S13G22    30.12R

$$

LAZ001-002-300200-
NORTHWEST LOUISIANA

CITY           SKY/WX    TMP DP  RH WIND       PRES   REMARKS
SHREVEPORT     CLEAR     77  56  48 S12       30.02R
BARKSDALE AFB  CLEAR     76  56  49 S16       30.02R
DTN SHREVEPORT CLEAR     76  55  48 S12       30.02R

$$

LAZ014-016-300200-
NORTHEAST LOUISIANA

CITY           SKY/WX    TMP DP  RH WIND       PRES   REMARKS
MONROE         CLEAR     76  56  49 S13G22    30.04S
TALLULAH       CLEAR     74  54  49 S9G20     30.08S

$$




USA.gov is the U.S. government's official web portal to all federal, state and local government web resources and services.